Location: Eboldshausen
(51.7766°N, 10.0050°E)
Time: 06:45:00
(UTC+00:00)

USA 281 - Pass Details

Date: 15 November 2025
Orbit: 1079 x 1080 km, 106.0° (Epoch: 08 December)

Event Time Altitude Azimuth Distance (km) Brightness Sun altitude
Exits shadow 18:56:10 61° 196° (SSW) 1,215 3.4 -31.7°
Maximum altitude 18:57:09 70° 245° (WSW) 1,145 3.3 -31.9°
Drops below altitude 10° 19:03:44 10° 330° (NNW) 2,931 5.9 -32.9°
Sets 19:06:17 0° 332° (NNW) 3,891 6.6 -33.3°
